owner,sensor,date,latitude,longitude,vertical_datum,sea_water_practical_salinity,qcFlag 
LUMCON,ioos:station:LUMCON:102:1,2019-02-01T00:00:00Z,29.1870,-90.6093,2.58,24.21,1111122 
LUMCON,ioos:station:LUMCON:102:1,2019-02-01T00:15:00Z,29.1870,-90.6093,2.57,24.38,1111122 
LUMCON,ioos:station:LUMCON:102:1,2019-02-01T00:30:00Z,29.1870,-90.6093,2.57,24.46,1111122 
LUMCON,ioos:station:LUMCON:102:1,2019-02-01T00:45:00Z,29.1870,-90.6093,2.58,24.49,1111122 
LUMCON,ioos:station:LUMCON:102:1,2019-02-01T01:00:00Z,29.1870,-90.6093,2.59,24.42,1111122 
LUMCON,ioos:station:LUMCON:102:1,2019-02-01T01:15:00Z,29.1870,-90.6093,2.56,24.37,1111122 
LUMCON,ioos:station:LUMCON:102:1,2019-02-01T01:30:00Z,29.1870,-90.6093,2.55,24.46,1111122 
LUMCON,ioos:station:LUMCON:102:1,2019-02-01T01:45:00Z,29.1870,-90.6093,2.55,24.6,1111122 
LUMCON,ioos:station:LUMCON:102:1,2019-02-01T02:00:00Z,29.1870,-90.6093,2.56,24.68,1111122 
LUMCON,ioos:station:LUMCON:102:1,2019-02-01T02:15:00Z,29.1870,-90.6093,2.55,24.71,1111122 
LUMCON,ioos:station:LUMCON:102:1,2019-02-01T02:30:00Z,29.1870,-90.6093,2.57,24.75,1111122 
LUMCON,ioos:station:LUMCON:102:1,2019-02-01T02:45:00Z,29.1870,-90.6093,2.55,24.66,1111122 
LUMCON,ioos:station:LUMCON:102:1,2019-02-01T03:00:00Z,29.1870,-90.6093,2.54,24.59,1111122 
LUMCON,ioos:station:LUMCON:102:1,2019-02-01T03:15:00Z,29.1870,-90.6093,2.53,24.46,1111122 
LUMCON,ioos:station:LUMCON:102:1,2019-02-01T03:30:00Z,29.1870,-90.6093,2.53,24.32,1111122 
LUMCON,ioos:station:LUMCON:102:1,2019-02-01T03:45:00Z,29.1870,-90.6093,2.54,24.33,1111122 
LUMCON,ioos:station:LUMCON:102:1,2019-02-01T04:00:00Z,29.1870,-90.6093,2.55,24.33,1111122 
LUMCON,ioos:station:LUMCON:102:1,2019-02-01T04:15:00Z,29.1870,-90.6093,2.52,24.28,1111122 
LUMCON,ioos:station:LUMCON:102:1,2019-02-01T04:30:00Z,29.1870,-90.6093,2.53,24.18,1111122 
LUMCON,ioos:station:LUMCON:102:1,2019-02-01T04:45:00Z,29.1870,-90.6093,2.52,24.21,1111122 
LUMCON,ioos:station:LUMCON:102:1,2019-02-01T05:00:00Z,29.1870,-90.6093,2.5,24.09,1111122 
LUMCON,ioos:station:LUMCON:102:1,2019-02-01T05:15:00Z,29.1870,-90.6093,2.48,23.8,1111122 
LUMCON,ioos:station:LUMCON:102:1,2019-02-01T05:30:00Z,29.1870,-90.6093,2.45,23.55,1111122 
LUMCON,ioos:station:LUMCON:102:1,2019-02-01T05:45:00Z,29.1870,-90.6093,2.45,23.22,1111122 
LUMCON,ioos:station:LUMCON:102:1,2019-02-01T06:00:00Z,29.1870,-90.6093,2.42,22.93,1111122 
LUMCON,ioos:station:LUMCON:102:1,2019-02-01T06:15:00Z,29.1870,-90.6093,2.42,22.78,1111122 
LUMCON,ioos:station:LUMCON:102:1,2019-02-01T06:30:00Z,29.1870,-90.6093,2.39,22.43,1111122 
LUMCON,ioos:station:LUMCON:102:1,2019-02-01T06:45:00Z,29.1870,-90.6093,2.39,22.15,1111122 
LUMCON,ioos:station:LUMCON:102:1,2019-02-01T07:00:00Z,29.1870,-90.6093,2.37,21.92,1111122 
LUMCON,ioos:station:LUMCON:102:1,2019-02-01T07:15:00Z,29.1870,-90.6093,2.35,21.83,1111122 
LUMCON,ioos:station:LUMCON:102:1,2019-02-01T07:30:00Z,29.1870,-90.6093,2.32,21.76,1111122 
LUMCON,ioos:station:LUMCON:102:1,2019-02-01T07:45:00Z,29.1870,-90.6093,2.31,21.55,1111122 
LUMCON,ioos:station:LUMCON:102:1,2019-02-01T08:00:00Z,29.1870,-90.6093,2.27,21.22,1111122 
LUMCON,ioos:station:LUMCON:102:1,2019-02-01T08:15:00Z,29.1870,-90.6093,2.25,21.07,1111122 
LUMCON,ioos:station:LUMCON:102:1,2019-02-01T08:30:00Z,29.1870,-90.6093,2.24,20.84,1111122 
LUMCON,ioos:station:LUMCON:102:1,2019-02-01T08:45:00Z,29.1870,-90.6093,2.22,20.4,1111122 
LUMCON,ioos:station:LUMCON:102:1,2019-02-01T09:00:00Z,29.1870,-90.6093,2.22,20.07,1111122 
LUMCON,ioos:station:LUMCON:102:1,2019-02-01T09:15:00Z,29.1870,-90.6093,2.2,19.63,1111122 
LUMCON,ioos:station:LUMCON:102:1,2019-02-01T09:30:00Z,29.1870,-90.6093,2.18,19.17,1111122 
LUMCON,ioos:station:LUMCON:102:1,2019-02-01T09:45:00Z,29.1870,-90.6093,2.17,18.81,1111122 
LUMCON,ioos:station:LUMCON:102:1,2019-02-01T10:00:00Z,29.1870,-90.6093,2.18,18.79,1111122 
LUMCON,ioos:station:LUMCON:102:1,2019-02-01T10:15:00Z,29.1870,-90.6093,2.16,18.86,1111122 
LUMCON,ioos:station:LUMCON:102:1,2019-02-01T10:30:00Z,29.1870,-90.6093,2.15,18.8,1111122 
LUMCON,ioos:station:LUMCON:102:1,2019-02-01T10:45:00Z,29.1870,-90.6093,2.14,18.81,1111122 
LUMCON,ioos:station:LUMCON:102:1,2019-02-01T11:00:00Z,29.1870,-90.6093,2.12,18.75,1111122 
LUMCON,ioos:station:LUMCON:102:1,2019-02-01T11:15:00Z,29.1870,-90.6093,2.12,18.65,1111122 
LUMCON,ioos:station:LUMCON:102:1,2019-02-01T11:30:00Z,29.1870,-90.6093,2.11,18.68,1111122 
LUMCON,ioos:station:LUMCON:102:1,2019-02-01T11:45:00Z,29.1870,-90.6093,2.13,18.61,1111122 
LUMCON,ioos:station:LUMCON:102:1,2019-02-01T12:00:00Z,29.1870,-90.6093,2.13,18.57,1111122 
LUMCON,ioos:station:LUMCON:102:1,2019-02-01T12:15:00Z,29.1870,-90.6093,2.13,18.72,1111122 
LUMCON,ioos:station:LUMCON:102:1,2019-02-01T12:30:00Z,29.1870,-90.6093,2.12,18.96,1111122 
LUMCON,ioos:station:LUMCON:102:1,2019-02-01T12:45:00Z,29.1870,-90.6093,2.13,19.11,1111122 
LUMCON,ioos:station:LUMCON:102:1,2019-02-01T13:00:00Z,29.1870,-90.6093,2.13,18.99,1111122 
LUMCON,ioos:station:LUMCON:102:1,2019-02-01T13:15:00Z,29.1870,-90.6093,2.16,19.05,1111122 
LUMCON,ioos:station:LUMCON:102:1,2019-02-01T13:30:00Z,29.1870,-90.6093,2.16,19.09,1111122 
LUMCON,ioos:station:LUMCON:102:1,2019-02-01T13:45:00Z,29.1870,-90.6093,2.14,19.05,1111122 
LUMCON,ioos:station:LUMCON:102:1,2019-02-01T14:00:00Z,29.1870,-90.6093,2.14,19.02,1111122 
LUMCON,ioos:station:LUMCON:102:1,2019-02-01T14:15:00Z,29.1870,-90.6093,2.18,19.07,1111122 
LUMCON,ioos:station:LUMCON:102:1,2019-02-01T14:30:00Z,29.1870,-90.6093,2.19,19.09,1111122 
LUMCON,ioos:station:LUMCON:102:1,2019-02-01T14:45:00Z,29.1870,-90.6093,2.21,19.08,1111122 
LUMCON,ioos:station:LUMCON:102:1,2019-02-01T15:00:00Z,29.1870,-90.6093,2.24,19.16,1111122 
LUMCON,ioos:station:LUMCON:102:1,2019-02-01T15:15:00Z,29.1870,-90.6093,2.23,19.19,1111122 
LUMCON,ioos:station:LUMCON:102:1,2019-02-01T15:30:00Z,29.1870,-90.6093,2.25,19.11,1111122 
LUMCON,ioos:station:LUMCON:102:1,2019-02-01T15:45:00Z,29.1870,-90.6093,2.27,19.1,1111122 
LUMCON,ioos:station:LUMCON:102:1,2019-02-01T16:00:00Z,29.1870,-90.6093,2.27,19.82,1111122 
LUMCON,ioos:station:LUMCON:102:1,2019-02-01T16:15:00Z,29.1870,-90.6093,2.29,19.91,1111122 
LUMCON,ioos:station:LUMCON:102:1,2019-02-01T16:30:00Z,29.1870,-90.6093,2.31,19.9,1111122 
LUMCON,ioos:station:LUMCON:102:1,2019-02-01T16:45:00Z,29.1870,-90.6093,2.32,19.7,1111122 
LUMCON,ioos:station:LUMCON:102:1,2019-02-01T17:00:00Z,29.1870,-90.6093,2.32,19.78,1111122 
LUMCON,ioos:station:LUMCON:102:1,2019-02-01T17:15:00Z,29.1870,-90.6093,2.34,20.01,1111122 
LUMCON,ioos:station:LUMCON:102:1,2019-02-01T17:30:00Z,29.1870,-90.6093,2.34,20.03,1111122 
LUMCON,ioos:station:LUMCON:102:1,2019-02-01T17:45:00Z,29.1870,-90.6093,2.35,20.04,1111122 
LUMCON,ioos:station:LUMCON:102:1,2019-02-01T18:00:00Z,29.1870,-90.6093,2.35,19.82,1111122 
LUMCON,ioos:station:LUMCON:102:1,2019-02-01T18:15:00Z,29.1870,-90.6093,2.36,19.89,1111122 
LUMCON,ioos:station:LUMCON:102:1,2019-02-01T18:30:00Z,29.1870,-90.6093,2.36,19.86,1111122 
LUMCON,ioos:station:LUMCON:102:1,2019-02-01T18:45:00Z,29.1870,-90.6093,2.36,19.97,1111122 
LUMCON,ioos:station:LUMCON:102:1,2019-02-01T19:00:00Z,29.1870,-90.6093,2.35,20.16,1111122 
LUMCON,ioos:station:LUMCON:102:1,2019-02-01T19:15:00Z,29.1870,-90.6093,2.38,20.24,1111122 
LUMCON,ioos:station:LUMCON:102:1,2019-02-01T19:30:00Z,29.1870,-90.6093,2.37,20.5,1111122 
LUMCON,ioos:station:LUMCON:102:1,2019-02-01T19:45:00Z,29.1870,-90.6093,2.38,20.53,1111122 
LUMCON,ioos:station:LUMCON:102:1,2019-02-01T20:00:00Z,29.1870,-90.6093,2.39,20.69,1111122 
LUMCON,ioos:station:LUMCON:102:1,2019-02-01T20:15:00Z,29.1870,-90.6093,2.4,20.89,1111122 
LUMCON,ioos:station:LUMCON:102:1,2019-02-01T20:30:00Z,29.1870,-90.6093,2.4,21.03,1111122 
LUMCON,ioos:station:LUMCON:102:1,2019-02-01T20:45:00Z,29.1870,-90.6093,2.42,21.12,1111122 
LUMCON,ioos:station:LUMCON:102:1,2019-02-01T21:00:00Z,29.1870,-90.6093,2.42,21.23,1111122 
LUMCON,ioos:station:LUMCON:102:1,2019-02-01T21:15:00Z,29.1870,-90.6093,2.43,21.29,1111122 
LUMCON,ioos:station:LUMCON:102:1,2019-02-01T21:30:00Z,29.1870,-90.6093,2.44,21.42,1111122 
LUMCON,ioos:station:LUMCON:102:1,2019-02-01T21:45:00Z,29.1870,-90.6093,2.45,21.5,1111122 
LUMCON,ioos:station:LUMCON:102:1,2019-02-01T22:00:00Z,29.1870,-90.6093,2.45,21.45,1111122 
LUMCON,ioos:station:LUMCON:102:1,2019-02-01T22:15:00Z,29.1870,-90.6093,2.46,21.63,1111122 
LUMCON,ioos:station:LUMCON:102:1,2019-02-01T22:30:00Z,29.1870,-90.6093,2.48,21.7,1111122 
LUMCON,ioos:station:LUMCON:102:1,2019-02-01T22:45:00Z,29.1870,-90.6093,2.49,21.76,1111122 
LUMCON,ioos:station:LUMCON:102:1,2019-02-01T23:00:00Z,29.1870,-90.6093,2.52,21.93,1111122 
LUMCON,ioos:station:LUMCON:102:1,2019-02-01T23:15:00Z,29.1870,-90.6093,2.52,22.17,1111122 
LUMCON,ioos:station:LUMCON:102:1,2019-02-01T23:30:00Z,29.1870,-90.6093,2.54,22.32,1111122 
LUMCON,ioos:station:LUMCON:102:1,2019-02-01T23:45:00Z,29.1870,-90.6093,2.54,22.45,1111122 
LUMCON,ioos:station:LUMCON:102:1,2019-02-02T00:00:00Z,29.1870,-90.6093,2.55,22.68,1111122 
LUMCON,ioos:station:LUMCON:102:1,2019-02-02T00:15:00Z,29.1870,-90.6093,2.54,22.76,1111122 
LUMCON,ioos:station:LUMCON:102:1,2019-02-02T00:30:00Z,29.1870,-90.6093,2.54,22.82,1111122 
LUMCON,ioos:station:LUMCON:102:1,2019-02-02T00:45:00Z,29.1870,-90.6093,2.54,22.97,1111122 
LUMCON,ioos:station:LUMCON:102:1,2019-02-02T01:00:00Z,29.1870,-90.6093,2.53,23.1,1111122 
LUMCON,ioos:station:LUMCON:102:1,2019-02-02T01:15:00Z,29.1870,-90.6093,2.52,23.13,1111122 
LUMCON,ioos:station:LUMCON:102:1,2019-02-02T01:30:00Z,29.1870,-90.6093,2.51,23.17,1111122 
LUMCON,ioos:station:LUMCON:102:1,2019-02-02T01:45:00Z,29.1870,-90.6093,2.5,23.23,1111122 
LUMCON,ioos:station:LUMCON:102:1,2019-02-02T02:00:00Z,29.1870,-90.6093,2.51,23.19,1111122 
LUMCON,ioos:station:LUMCON:102:1,2019-02-02T02:15:00Z,29.1870,-90.6093,2.48,23.2,1111122 
LUMCON,ioos:station:LUMCON:102:1,2019-02-02T02:30:00Z,29.1870,-90.6093,2.49,23.25,1111122 
LUMCON,ioos:station:LUMCON:102:1,2019-02-02T02:45:00Z,29.1870,-90.6093,2.49,23.31,1111122 
LUMCON,ioos:station:LUMCON:102:1,2019-02-02T03:00:00Z,29.1870,-90.6093,2.48,23.35,1111122 
LUMCON,ioos:station:LUMCON:102:1,2019-02-02T03:15:00Z,29.1870,-90.6093,2.49,23.38,1111122 
LUMCON,ioos:station:LUMCON:102:1,2019-02-02T03:30:00Z,29.1870,-90.6093,2.48,23.37,1111122 
LUMCON,ioos:station:LUMCON:102:1,2019-02-02T03:45:00Z,29.1870,-90.6093,2.48,23.4,1111122 
LUMCON,ioos:station:LUMCON:102:1,2019-02-02T04:00:00Z,29.1870,-90.6093,2.48,23.43,1111122 
LUMCON,ioos:station:LUMCON:102:1,2019-02-02T04:15:00Z,29.1870,-90.6093,2.47,23.4,1111122 
LUMCON,ioos:station:LUMCON:102:1,2019-02-02T04:30:00Z,29.1870,-90.6093,2.48,23.44,1111122 
LUMCON,ioos:station:LUMCON:102:1,2019-02-02T04:45:00Z,29.1870,-90.6093,2.47,23.33,1111122 
LUMCON,ioos:station:LUMCON:102:1,2019-02-02T05:00:00Z,29.1870,-90.6093,2.45,23.21,1111122 
LUMCON,ioos:station:LUMCON:102:1,2019-02-02T05:15:00Z,29.1870,-90.6093,2.44,23.08,1111122 
LUMCON,ioos:station:LUMCON:102:1,2019-02-02T05:30:00Z,29.1870,-90.6093,2.45,23.01,1111122 
LUMCON,ioos:station:LUMCON:102:1,2019-02-02T05:45:00Z,29.1870,-90.6093,2.44,22.88,1111122 
LUMCON,ioos:station:LUMCON:102:1,2019-02-02T06:00:00Z,29.1870,-90.6093,2.42,22.76,1111122 
LUMCON,ioos:station:LUMCON:102:1,2019-02-02T06:15:00Z,29.1870,-90.6093,2.41,22.61,1111122 
LUMCON,ioos:station:LUMCON:102:1,2019-02-02T06:30:00Z,29.1870,-90.6093,2.39,22.44,1111122 
LUMCON,ioos:station:LUMCON:102:1,2019-02-02T06:45:00Z,29.1870,-90.6093,2.39,22.34,1111122 
LUMCON,ioos:station:LUMCON:102:1,2019-02-02T07:00:00Z,29.1870,-90.6093,2.36,22.16,1111122 
LUMCON,ioos:station:LUMCON:102:1,2019-02-02T07:15:00Z,29.1870,-90.6093,2.36,21.93,1111122 
LUMCON,ioos:station:LUMCON:102:1,2019-02-02T07:30:00Z,29.1870,-90.6093,2.35,21.65,1111122 
LUMCON,ioos:station:LUMCON:102:1,2019-02-02T07:45:00Z,29.1870,-90.6093,2.33,21.38,1111122 
LUMCON,ioos:station:LUMCON:102:1,2019-02-02T08:00:00Z,29.1870,-90.6093,2.31,21.1,1111122 
LUMCON,ioos:station:LUMCON:102:1,2019-02-02T08:15:00Z,29.1870,-90.6093,2.29,20.77,1111122 
LUMCON,ioos:station:LUMCON:102:1,2019-02-02T08:30:00Z,29.1870,-90.6093,2.27,20.46,1111122 
LUMCON,ioos:station:LUMCON:102:1,2019-02-02T08:45:00Z,29.1870,-90.6093,2.25,20.1,1111122 
LUMCON,ioos:station:LUMCON:102:1,2019-02-02T09:00:00Z,29.1870,-90.6093,2.24,19.47,1111122 
LUMCON,ioos:station:LUMCON:102:1,2019-02-02T09:15:00Z,29.1870,-90.6093,2.23,18.48,1111122 
LUMCON,ioos:station:LUMCON:102:1,2019-02-02T09:30:00Z,29.1870,-90.6093,2.21,18.19,1111122 
LUMCON,ioos:station:LUMCON:102:1,2019-02-02T09:45:00Z,29.1870,-90.6093,2.19,18.0,1111122 
LUMCON,ioos:station:LUMCON:102:1,2019-02-02T10:00:00Z,29.1870,-90.6093,2.17,17.98,1111122 
LUMCON,ioos:station:LUMCON:102:1,2019-02-02T10:15:00Z,29.1870,-90.6093,2.15,18.15,1111122 
LUMCON,ioos:station:LUMCON:102:1,2019-02-02T10:30:00Z,29.1870,-90.6093,2.14,18.23,1111122 
LUMCON,ioos:station:LUMCON:102:1,2019-02-02T10:45:00Z,29.1870,-90.6093,2.13,18.32,1111122 
LUMCON,ioos:station:LUMCON:102:1,2019-02-02T11:00:00Z,29.1870,-90.6093,2.11,18.28,1111122 
LUMCON,ioos:station:LUMCON:102:1,2019-02-02T11:15:00Z,29.1870,-90.6093,2.1,18.3,1111122 
LUMCON,ioos:station:LUMCON:102:1,2019-02-02T11:30:00Z,29.1870,-90.6093,2.1,18.25,1111122 
LUMCON,ioos:station:LUMCON:102:1,2019-02-02T11:45:00Z,29.1870,-90.6093,2.09,18.26,1111122 
LUMCON,ioos:station:LUMCON:102:1,2019-02-02T12:00:00Z,29.1870,-90.6093,2.1,18.32,1111122 
LUMCON,ioos:station:LUMCON:102:1,2019-02-02T12:15:00Z,29.1870,-90.6093,2.09,18.26,1111122 
LUMCON,ioos:station:LUMCON:102:1,2019-02-02T12:30:00Z,29.1870,-90.6093,2.09,18.22,1111122 
LUMCON,ioos:station:LUMCON:102:1,2019-02-02T12:45:00Z,29.1870,-90.6093,2.09,18.15,1111122 
LUMCON,ioos:station:LUMCON:102:1,2019-02-02T13:00:00Z,29.1870,-90.6093,2.08,18.12,1111122 
LUMCON,ioos:station:LUMCON:102:1,2019-02-02T13:15:00Z,29.1870,-90.6093,2.08,18.17,1111122 
LUMCON,ioos:station:LUMCON:102:1,2019-02-02T13:30:00Z,29.1870,-90.6093,2.08,18.1,1111122 
LUMCON,ioos:station:LUMCON:102:1,2019-02-02T13:45:00Z,29.1870,-90.6093,2.08,18.18,1111122 
LUMCON,ioos:station:LUMCON:102:1,2019-02-02T14:00:00Z,29.1870,-90.6093,2.08,18.29,1111122 
LUMCON,ioos:station:LUMCON:102:1,2019-02-02T14:15:00Z,29.1870,-90.6093,2.1,18.29,1111122 
LUMCON,ioos:station:LUMCON:102:1,2019-02-02T14:30:00Z,29.1870,-90.6093,2.1,18.12,1111122 
LUMCON,ioos:station:LUMCON:102:1,2019-02-02T14:45:00Z,29.1870,-90.6093,2.11,18.34,1111122 
LUMCON,ioos:station:LUMCON:102:1,2019-02-02T15:00:00Z,29.1870,-90.6093,2.11,18.39,1111122 
LUMCON,ioos:station:LUMCON:102:1,2019-02-02T15:15:00Z,29.1870,-90.6093,2.12,18.73,1111122 
LUMCON,ioos:station:LUMCON:102:1,2019-02-02T15:30:00Z,29.1870,-90.6093,2.15,19.4,1111122 
LUMCON,ioos:station:LUMCON:102:1,2019-02-02T15:45:00Z,29.1870,-90.6093,2.15,19.57,1111122 
LUMCON,ioos:station:LUMCON:102:1,2019-02-02T16:00:00Z,29.1870,-90.6093,2.18,19.59,1111122 
LUMCON,ioos:station:LUMCON:102:1,2019-02-02T16:15:00Z,29.1870,-90.6093,2.18,19.66,1111122 
LUMCON,ioos:station:LUMCON:102:1,2019-02-02T16:30:00Z,29.1870,-90.6093,2.2,19.57,1111122 
LUMCON,ioos:station:LUMCON:102:1,2019-02-02T16:45:00Z,29.1870,-90.6093,2.21,19.58,1111122 
LUMCON,ioos:station:LUMCON:102:1,2019-02-02T17:00:00Z,29.1870,-90.6093,2.22,19.67,1111122 
LUMCON,ioos:station:LUMCON:102:1,2019-02-02T17:15:00Z,29.1870,-90.6093,2.23,19.67,1111122 
LUMCON,ioos:station:LUMCON:102:1,2019-02-02T17:30:00Z,29.1870,-90.6093,2.24,19.66,1111122 
LUMCON,ioos:station:LUMCON:102:1,2019-02-02T17:45:00Z,29.1870,-90.6093,2.26,19.7,1111122 
LUMCON,ioos:station:LUMCON:102:1,2019-02-02T18:00:00Z,29.1870,-90.6093,2.27,19.8,1111122 
LUMCON,ioos:station:LUMCON:102:1,2019-02-02T18:15:00Z,29.1870,-90.6093,2.29,19.82,1111122 
LUMCON,ioos:station:LUMCON:102:1,2019-02-02T18:30:00Z,29.1870,-90.6093,2.29,19.76,1111122 
LUMCON,ioos:station:LUMCON:102:1,2019-02-02T18:45:00Z,29.1870,-90.6093,2.31,20.06,1111122 
LUMCON,ioos:station:LUMCON:102:1,2019-02-02T19:00:00Z,29.1870,-90.6093,2.31,19.88,1111122 
LUMCON,ioos:station:LUMCON:102:1,2019-02-02T19:15:00Z,29.1870,-90.6093,2.32,20.22,1111122 
LUMCON,ioos:station:LUMCON:102:1,2019-02-02T19:30:00Z,29.1870,-90.6093,2.33,20.39,1111122 
LUMCON,ioos:station:LUMCON:102:1,2019-02-02T19:45:00Z,29.1870,-90.6093,2.35,20.45,1111122 
LUMCON,ioos:station:LUMCON:102:1,2019-02-02T20:00:00Z,29.1870,-90.6093,2.35,20.65,1111122 
LUMCON,ioos:station:LUMCON:102:1,2019-02-02T20:15:00Z,29.1870,-90.6093,2.37,20.68,1111122 
LUMCON,ioos:station:LUMCON:102:1,2019-02-02T20:30:00Z,29.1870,-90.6093,2.38,20.8,1111122 
LUMCON,ioos:station:LUMCON:102:1,2019-02-02T20:45:00Z,29.1870,-90.6093,2.4,20.87,1111122 
LUMCON,ioos:station:LUMCON:102:1,2019-02-02T21:00:00Z,29.1870,-90.6093,2.4,20.84,1111122 
LUMCON,ioos:station:LUMCON:102:1,2019-02-02T21:15:00Z,29.1870,-90.6093,2.42,20.96,1111122 
LUMCON,ioos:station:LUMCON:102:1,2019-02-02T21:30:00Z,29.1870,-90.6093,2.43,21.15,1111122 
LUMCON,ioos:station:LUMCON:102:1,2019-02-02T21:45:00Z,29.1870,-90.6093,2.42,21.21,1111122 
LUMCON,ioos:station:LUMCON:102:1,2019-02-02T22:00:00Z,29.1870,-90.6093,2.45,21.17,1111122 
LUMCON,ioos:station:LUMCON:102:1,2019-02-02T22:15:00Z,29.1870,-90.6093,2.45,21.05,1111122 
LUMCON,ioos:station:LUMCON:102:1,2019-02-02T22:30:00Z,29.1870,-90.6093,2.46,21.11,1111122 
LUMCON,ioos:station:LUMCON:102:1,2019-02-02T22:45:00Z,29.1870,-90.6093,2.46,21.45,1111122 
LUMCON,ioos:station:LUMCON:102:1,2019-02-02T23:00:00Z,29.1870,-90.6093,2.47,21.9,1111122 
LUMCON,ioos:station:LUMCON:102:1,2019-02-02T23:15:00Z,29.1870,-90.6093,2.49,22.11,1111122 
LUMCON,ioos:station:LUMCON:102:1,2019-02-02T23:30:00Z,29.1870,-90.6093,2.49,22.28,1111122 
LUMCON,ioos:station:LUMCON:102:1,2019-02-02T23:45:00Z,29.1870,-90.6093,2.5,22.47,1111122 
LUMCON,ioos:station:LUMCON:102:1,2019-02-03T00:00:00Z,29.1870,-90.6093,2.51,22.68,1111122 
LUMCON,ioos:station:LUMCON:102:1,2019-02-03T00:15:00Z,29.1870,-90.6093,2.53,22.78,1111122 
LUMCON,ioos:station:LUMCON:102:1,2019-02-03T00:30:00Z,29.1870,-90.6093,2.54,22.9,1111122 
LUMCON,ioos:station:LUMCON:102:1,2019-02-03T00:45:00Z,29.1870,-90.6093,2.55,22.93,1111122 
LUMCON,ioos:station:LUMCON:102:1,2019-02-03T01:00:00Z,29.1870,-90.6093,2.55,23.01,1111122 
LUMCON,ioos:station:LUMCON:102:1,2019-02-03T01:15:00Z,29.1870,-90.6093,2.56,23.19,1111122 
LUMCON,ioos:station:LUMCON:102:1,2019-02-03T01:30:00Z,29.1870,-90.6093,2.57,23.47,1111122 
LUMCON,ioos:station:LUMCON:102:1,2019-02-03T01:45:00Z,29.1870,-90.6093,2.56,23.64,1111122 
LUMCON,ioos:station:LUMCON:102:1,2019-02-03T02:00:00Z,29.1870,-90.6093,2.55,23.69,1111122 
LUMCON,ioos:station:LUMCON:102:1,2019-02-03T02:15:00Z,29.1870,-90.6093,2.55,23.76,1111122 
LUMCON,ioos:station:LUMCON:102:1,2019-02-03T02:30:00Z,29.1870,-90.6093,2.54,23.74,1111122 
LUMCON,ioos:station:LUMCON:102:1,2019-02-03T02:45:00Z,29.1870,-90.6093,2.53,23.78,1111122 
LUMCON,ioos:station:LUMCON:102:1,2019-02-03T03:00:00Z,29.1870,-90.6093,2.52,23.76,1111122 
LUMCON,ioos:station:LUMCON:102:1,2019-02-03T03:15:00Z,29.1870,-90.6093,2.52,23.79,1111122 
LUMCON,ioos:station:LUMCON:102:1,2019-02-03T03:30:00Z,29.1870,-90.6093,2.52,23.75,1111122 
LUMCON,ioos:station:LUMCON:102:1,2019-02-03T03:45:00Z,29.1870,-90.6093,2.52,23.82,1111122 
LUMCON,ioos:station:LUMCON:102:1,2019-02-03T04:00:00Z,29.1870,-90.6093,2.51,23.76,1111122 
LUMCON,ioos:station:LUMCON:102:1,2019-02-03T04:15:00Z,29.1870,-90.6093,2.5,23.8,1111122 
LUMCON,ioos:station:LUMCON:102:1,2019-02-03T04:30:00Z,29.1870,-90.6093,2.49,23.75,1111122 
LUMCON,ioos:station:LUMCON:102:1,2019-02-03T04:45:00Z,29.1870,-90.6093,2.48,23.78,1111122 
LUMCON,ioos:station:LUMCON:102:1,2019-02-03T05:00:00Z,29.1870,-90.6093,2.47,23.73,1111122 
LUMCON,ioos:station:LUMCON:102:1,2019-02-03T05:15:00Z,29.1870,-90.6093,2.47,23.77,1111122 
LUMCON,ioos:station:LUMCON:102:1,2019-02-03T05:30:00Z,29.1870,-90.6093,2.46,23.67,1111122 
LUMCON,ioos:station:LUMCON:102:1,2019-02-03T05:45:00Z,29.1870,-90.6093,2.44,23.74,1111122 
LUMCON,ioos:station:LUMCON:102:1,2019-02-03T06:00:00Z,29.1870,-90.6093,2.43,23.68,1111122 
LUMCON,ioos:station:LUMCON:102:1,2019-02-03T06:15:00Z,29.1870,-90.6093,2.43,23.59,1111122 
LUMCON,ioos:station:LUMCON:102:1,2019-02-03T06:30:00Z,29.1870,-90.6093,2.41,23.51,1111122 
LUMCON,ioos:station:LUMCON:102:1,2019-02-03T06:45:00Z,29.1870,-90.6093,2.39,23.42,1111122 
LUMCON,ioos:station:LUMCON:102:1,2019-02-03T07:00:00Z,29.1870,-90.6093,2.39,23.26,1111122 
LUMCON,ioos:station:LUMCON:102:1,2019-02-03T07:15:00Z,29.1870,-90.6093,2.38,23.26,1111122 
LUMCON,ioos:station:LUMCON:102:1,2019-02-03T07:30:00Z,29.1870,-90.6093,2.38,23.12,1111122 
LUMCON,ioos:station:LUMCON:102:1,2019-02-03T07:45:00Z,29.1870,-90.6093,2.36,23.08,1111122 
LUMCON,ioos:station:LUMCON:102:1,2019-02-03T08:00:00Z,29.1870,-90.6093,2.35,22.97,1111122 
LUMCON,ioos:station:LUMCON:102:1,2019-02-03T08:15:00Z,29.1870,-90.6093,2.33,22.84,1111122 
LUMCON,ioos:station:LUMCON:102:1,2019-02-03T08:30:00Z,29.1870,-90.6093,2.32,22.64,1111122 
LUMCON,ioos:station:LUMCON:102:1,2019-02-03T08:45:00Z,29.1870,-90.6093,2.3,22.21,1111122 
LUMCON,ioos:station:LUMCON:102:1,2019-02-03T09:00:00Z,29.1870,-90.6093,2.28,21.96,1111122 
LUMCON,ioos:station:LUMCON:102:1,2019-02-03T09:15:00Z,29.1870,-90.6093,2.26,21.96,1111122 
LUMCON,ioos:station:LUMCON:102:1,2019-02-03T09:30:00Z,29.1870,-90.6093,2.25,21.82,1111122 
LUMCON,ioos:station:LUMCON:102:1,2019-02-03T09:45:00Z,29.1870,-90.6093,2.23,21.55,1111122 
LUMCON,ioos:station:LUMCON:102:1,2019-02-03T10:00:00Z,29.1870,-90.6093,2.21,21.28,1111122 
LUMCON,ioos:station:LUMCON:102:1,2019-02-03T10:15:00Z,29.1870,-90.6093,2.2,21.2,1111122 
LUMCON,ioos:station:LUMCON:102:1,2019-02-03T10:30:00Z,29.1870,-90.6093,2.18,21.01,1111122 
LUMCON,ioos:station:LUMCON:102:1,2019-02-03T10:45:00Z,29.1870,-90.6093,2.16,20.95,1111122 
LUMCON,ioos:station:LUMCON:102:1,2019-02-03T11:00:00Z,29.1870,-90.6093,2.15,20.66,1111122 
LUMCON,ioos:station:LUMCON:102:1,2019-02-03T11:15:00Z,29.1870,-90.6093,2.14,20.8,1111122 
LUMCON,ioos:station:LUMCON:102:1,2019-02-03T11:30:00Z,29.1870,-90.6093,2.13,20.59,1111122 
LUMCON,ioos:station:LUMCON:102:1,2019-02-03T11:45:00Z,29.1870,-90.6093,2.12,20.51,1111122 
LUMCON,ioos:station:LUMCON:102:1,2019-02-03T12:00:00Z,29.1870,-90.6093,2.11,20.22,1111122 
LUMCON,ioos:station:LUMCON:102:1,2019-02-03T12:15:00Z,29.1870,-90.6093,2.1,20.11,1111122 
LUMCON,ioos:station:LUMCON:102:1,2019-02-03T12:30:00Z,29.1870,-90.6093,2.09,19.81,1111122 
LUMCON,ioos:station:LUMCON:102:1,2019-02-03T12:45:00Z,29.1870,-90.6093,2.1,19.66,1111122 
LUMCON,ioos:station:LUMCON:102:1,2019-02-03T13:00:00Z,29.1870,-90.6093,2.09,19.31,1111122 
LUMCON,ioos:station:LUMCON:102:1,2019-02-03T13:15:00Z,29.1870,-90.6093,2.07,19.02,1111122 
LUMCON,ioos:station:LUMCON:102:1,2019-02-03T13:30:00Z,29.1870,-90.6093,2.07,18.76,1111122 
LUMCON,ioos:station:LUMCON:102:1,2019-02-03T13:45:00Z,29.1870,-90.6093,2.06,18.73,1111122 
LUMCON,ioos:station:LUMCON:102:1,2019-02-03T14:00:00Z,29.1870,-90.6093,2.07,18.55,1111122 
LUMCON,ioos:station:LUMCON:102:1,2019-02-03T14:15:00Z,29.1870,-90.6093,2.06,18.75,1111122 
LUMCON,ioos:station:LUMCON:102:1,2019-02-03T14:30:00Z,29.1870,-90.6093,2.07,18.67,1111122 
LUMCON,ioos:station:LUMCON:102:1,2019-02-03T14:45:00Z,29.1870,-90.6093,2.08,18.81,1111122 
LUMCON,ioos:station:LUMCON:102:1,2019-02-03T15:00:00Z,29.1870,-90.6093,2.07,18.73,1111122 
LUMCON,ioos:station:LUMCON:102:1,2019-02-03T15:15:00Z,29.1870,-90.6093,2.08,18.96,1111122 
LUMCON,ioos:station:LUMCON:102:1,2019-02-03T15:30:00Z,29.1870,-90.6093,2.08,19.4,1111122 
LUMCON,ioos:station:LUMCON:102:1,2019-02-03T15:45:00Z,29.1870,-90.6093,2.09,20.07,1111122 
LUMCON,ioos:station:LUMCON:102:1,2019-02-03T16:00:00Z,29.1870,-90.6093,2.09,20.11,1111122 
LUMCON,ioos:station:LUMCON:102:1,2019-02-03T16:15:00Z,29.1870,-90.6093,2.12,20.31,1111122 
LUMCON,ioos:station:LUMCON:102:1,2019-02-03T16:30:00Z,29.1870,-90.6093,2.12,20.65,1111122 
LUMCON,ioos:station:LUMCON:102:1,2019-02-03T16:45:00Z,29.1870,-90.6093,2.12,21.06,1111122 
LUMCON,ioos:station:LUMCON:102:1,2019-02-03T17:00:00Z,29.1870,-90.6093,2.14,20.75,1111122 
LUMCON,ioos:station:LUMCON:102:1,2019-02-03T17:15:00Z,29.1870,-90.6093,2.14,21.17,1111122 
LUMCON,ioos:station:LUMCON:102:1,2019-02-03T17:30:00Z,29.1870,-90.6093,2.15,21.33,1111122 